Orbital Elements at Epoch 2459200.5 (2020-Dec-17.0) TDB
Reference: JPL 17 (heliocentric ecliptic J2000)
Element | Value | Uncertainty (1-sigma) | Units |
e | .09323172441596511 | 4.8753e-08 | |
a | 2.754959719623788 | 1.6399e-08 | au |
q | 2.498110074266739 | 1.3426e-07 | au |
i | 3.481612942896237 | 4.7842e-06 | deg |
node | 342.4594417292557 | 7.8855e-05 | deg |
peri | 52.18507665412891 | 8.4357e-05 | deg |
M | 13.65406083180948 | 2.5958e-05 | deg |
tp | 2459137.152330885246 (2020-Oct-14.65233089) | 0.00012057 | TDB |
period | 1670.21087442228 4.57 | 1.4913e-05 4.083e-08 | d yr |
n | .2155416453772777 | 1.9246e-09 | deg/d |
Q | 3.011809364980838 | 1.7928e-08 | au |
|
| | Orbit Determination Parameters
Additional Information
|